KQA606 HKJK-HKMO

Flight info

Callsign KQA606
Flight time 0h 43m
Altitude 31000
Route ATUDU1D UVOVA UQ135 NEREV NEREV3A
Aircraft B788/H-SDE1E2E3FGHIJ2J3J4J5M1RWXYZ/LB1D1

Departure

Time 2026-05-04 14:20
Airport Jomo Kenyatta International Airport (HKJK)

Arrival

Time 2026-05-04 15:04
Airport Moi International Airport (HKMO)
Time Latitude Longitude Altitude Speed Heading
2026-05-04 14:04 -1.33370 36.92392 5330 ft 0 kts 19°
2026-05-04 14:05 -1.33387 36.92386 5332 ft 4 kts 21°
2026-05-04 14:05 -1.33411 36.92374 5336 ft 4 kts 34°
2026-05-04 14:05 -1.33432 36.92357 5336 ft 4 kts 48°
2026-05-04 14:06 -1.33447 36.92338 5336 ft 1 kts 58°
2026-05-04 14:06 -1.33449 36.92334 5336 ft 0 kts 58°
2026-05-04 14:06 -1.33449 36.92335 5336 ft 0 kts 58°
2026-05-04 14:07 -1.33448 36.92336 5336 ft 0 kts 58°
2026-05-04 14:07 -1.33370 36.92392 5330 ft 0 kts 19°
2026-05-04 14:10 -1.33371 36.92391 5330 ft 1 kts 19°
2026-05-04 14:11 -1.33393 36.92384 5332 ft 3 kts 19°
2026-05-04 14:11 -1.33427 36.92354 5335 ft 4 kts 86°
2026-05-04 14:11 -1.33422 36.92331 5335 ft 4 kts 138°
2026-05-04 14:12 -1.33401 36.92315 5336 ft 4 kts 145°
2026-05-04 14:12 -1.33378 36.92300 5336 ft 3 kts 144°
2026-05-04 14:12 -1.33375 36.92297 5336 ft 0 kts 144°
2026-05-04 14:15 -1.33385 36.92305 5336 ft 3 kts 144°
2026-05-04 14:15 -1.33463 36.92333 5333 ft 7 kts 217°
2026-05-04 14:16 -1.33520 36.92198 5333 ft 14 kts 311°
2026-05-04 14:16 -1.33428 36.92131 5335 ft 19 kts 325°
2026-05-04 14:17 -1.33153 36.91933 5336 ft 29 kts 324°
2026-05-04 14:17 -1.32987 36.91813 5346 ft 28 kts 324°
2026-05-04 14:17 -1.32765 36.91657 5347 ft 2 kts 354°
2026-05-04 14:18 -1.32755 36.91660 5346 ft 1 kts 27°
2026-05-04 14:18 -1.32709 36.91706 5342 ft 8 kts 56°
2026-05-04 14:19 -1.32699 36.91719 5342 ft 0 kts 55°
2026-05-04 14:19 -1.32697 36.91723 5342 ft 5 kts 55°
2026-05-04 14:19 -1.32557 36.91917 5337 ft 69 kts 53°
2026-05-04 14:20 -1.32136 36.92488 5324 ft 135 kts 54°
2026-05-04 14:20 -1.31463 36.93400 5530 ft 172 kts 58°
2026-05-04 14:20 -1.30724 36.94364 6248 ft 181 kts 58°
2026-05-04 14:21 -1.29235 36.96423 7789 ft 190 kts 57°
2026-05-04 14:21 -1.28409 36.97496 8542 ft 195 kts 54°
2026-05-04 14:21 -1.27584 36.98544 9456 ft 192 kts 53°
2026-05-04 14:21 -1.26746 36.99618 10124 ft 204 kts 53°
2026-05-04 14:22 -1.25863 37.00847 10493 ft 233 kts 58°
2026-05-04 14:22 -1.25516 37.02510 10824 ft 264 kts 98°
2026-05-04 14:22 -1.26254 37.04291 11164 ft 297 kts 123°
2026-05-04 14:22 -1.27654 37.05989 11196 ft 335 kts 133°
2026-05-04 14:23 -1.30413 37.09888 12294 ft 352 kts 117°
2026-05-04 14:23 -1.31888 37.11870 13160 ft 360 kts 129°
2026-05-04 14:23 -1.33536 37.13781 14077 ft 366 kts 131°
2026-05-04 14:24 -1.35334 37.15616 14929 ft 371 kts 134°
2026-05-04 14:24 -1.37187 37.17428 15813 ft 375 kts 133°
2026-05-04 14:24 -1.39011 37.19307 16669 ft 379 kts 132°
2026-05-04 14:24 -1.40831 37.21232 17508 ft 383 kts 132°
2026-05-04 14:25 -1.42685 37.23152 18335 ft 387 kts 133°
2026-05-04 14:25 -1.46478 37.27041 19724 ft 394 kts 133°
2026-05-04 14:25 -1.48388 37.29021 20417 ft 397 kts 133°
2026-05-04 14:26 -1.50318 37.31018 21107 ft 400 kts 133°
2026-05-04 14:26 -1.52265 37.33024 21764 ft 404 kts 134°
2026-05-04 14:26 -1.54228 37.35046 22445 ft 407 kts 134°
2026-05-04 14:26 -1.56207 37.37091 23025 ft 412 kts 134°
2026-05-04 14:27 -1.58204 37.39155 23643 ft 415 kts 134°
2026-05-04 14:27 -1.60224 37.41240 24144 ft 419 kts 134°
2026-05-04 14:27 -1.62257 37.43338 24656 ft 421 kts 134°
2026-05-04 14:27 -1.64302 37.45449 25132 ft 425 kts 134°
2026-05-04 14:28 -1.66367 37.47582 25606 ft 428 kts 134°
2026-05-04 14:28 -1.68444 37.49726 26103 ft 431 kts 134°
2026-05-04 14:28 -1.70538 37.51888 26597 ft 434 kts 134°
2026-05-04 14:28 -1.72627 37.54045 27294 ft 431 kts 134°
2026-05-04 14:29 -1.76786 37.58339 28620 ft 428 kts 134°
2026-05-04 14:29 -1.80908 37.62597 29996 ft 425 kts 134°
2026-05-04 14:30 -1.82964 37.64719 30584 ft 424 kts 133°
2026-05-04 14:30 -1.85015 37.66838 31055 ft 426 kts 134°
2026-05-04 14:31 -1.91218 37.73244 31090 ft 422 kts 134°
2026-05-04 14:32 -1.99353 37.81648 31077 ft 420 kts 134°
2026-05-04 14:32 -2.02760 37.85168 31071 ft 420 kts 134°
2026-05-04 14:33 -2.06828 37.89371 31063 ft 420 kts 134°
2026-05-04 14:33 -2.10893 37.93571 31058 ft 421 kts 134°
2026-05-04 14:34 -2.14962 37.97776 31051 ft 421 kts 134°
2026-05-04 14:34 -2.19036 38.01986 31049 ft 421 kts 134°
2026-05-04 14:35 -2.23080 38.06165 31043 ft 421 kts 134°
2026-05-04 14:35 -2.27152 38.10374 31034 ft 421 kts 133°
2026-05-04 14:36 -2.31227 38.14586 31032 ft 421 kts 133°
2026-05-04 14:36 -2.35300 38.18797 31019 ft 421 kts 133°
2026-05-04 14:37 -2.39375 38.23010 31011 ft 421 kts 133°
2026-05-04 14:37 -2.43449 38.27222 31008 ft 421 kts 133°
2026-05-04 14:38 -2.47522 38.31434 31002 ft 421 kts 133°
2026-05-04 14:38 -2.51592 38.35643 30997 ft 421 kts 133°
2026-05-04 14:39 -2.55667 38.39857 30988 ft 421 kts 133°
2026-05-04 14:39 -2.59736 38.44067 30987 ft 421 kts 133°
2026-05-04 14:40 -2.65841 38.50382 30980 ft 421 kts 133°
2026-05-04 14:40 -2.69905 38.54586 30980 ft 420 kts 133°
2026-05-04 14:41 -2.73963 38.58785 30973 ft 420 kts 133°
2026-05-04 14:42 -2.82070 38.67175 30965 ft 419 kts 133°
2026-05-04 14:42 -2.86123 38.71370 30967 ft 419 kts 133°
2026-05-04 14:43 -2.90143 38.75532 30967 ft 419 kts 133°
2026-05-04 14:43 -2.94189 38.79720 30958 ft 418 kts 133°
2026-05-04 14:44 -2.98231 38.83905 30955 ft 416 kts 133°
2026-05-04 14:44 -3.00225 38.85970 30553 ft 413 kts 133°
2026-05-04 14:44 -3.02228 38.88044 29977 ft 416 kts 133°
2026-05-04 14:45 -3.04271 38.90160 29355 ft 417 kts 133°
2026-05-04 14:45 -3.06260 38.92219 28742 ft 418 kts 133°
2026-05-04 14:45 -3.08268 38.94299 28412 ft 413 kts 133°
2026-05-04 14:45 -3.10256 38.96358 27930 ft 410 kts 133°
2026-05-04 14:46 -3.12231 38.98404 27490 ft 407 kts 133°
2026-05-04 14:46 -3.14193 39.00437 27046 ft 405 kts 133°
2026-05-04 14:46 -3.16145 39.02460 26625 ft 402 kts 133°
2026-05-04 14:46 -3.18084 39.04467 26165 ft 400 kts 133°
2026-05-04 14:47 -3.20013 39.06465 25756 ft 397 kts 133°
2026-05-04 14:47 -3.21923 39.08445 25335 ft 395 kts 133°
2026-05-04 14:47 -3.23828 39.10419 24920 ft 393 kts 133°
2026-05-04 14:47 -3.25785 39.12315 24480 ft 391 kts 136°
2026-05-04 14:48 -3.27739 39.14187 24084 ft 388 kts 134°
2026-05-04 14:48 -3.29664 39.16071 23659 ft 386 kts 135°
2026-05-04 14:48 -3.31596 39.17927 23206 ft 384 kts 135°
2026-05-04 14:48 -3.33516 39.19748 22414 ft 379 kts 135°
2026-05-04 14:49 -3.35413 39.21561 21597 ft 375 kts 135°
2026-05-04 14:49 -3.37231 39.23309 20840 ft 370 kts 134°
2026-05-04 14:49 -3.39080 39.25085 20075 ft 366 kts 134°
2026-05-04 14:49 -3.40899 39.26824 19059 ft 360 kts 134°
2026-05-04 14:50 -3.42702 39.28550 18050 ft 355 kts 134°
2026-05-04 14:50 -3.44470 39.30247 16956 ft 349 kts 134°
2026-05-04 14:50 -3.46227 39.31932 16435 ft 346 kts 134°
2026-05-04 14:50 -3.47938 39.33569 15508 ft 340 kts 134°
2026-05-04 14:51 -3.49646 39.35207 14770 ft 338 kts 135°
2026-05-04 14:51 -3.51332 39.36823 14060 ft 334 kts 135°
2026-05-04 14:51 -3.53003 39.38426 13300 ft 331 kts 135°
2026-05-04 14:51 -3.54651 39.40006 12534 ft 326 kts 135°
2026-05-04 14:52 -3.56277 39.41564 11814 ft 322 kts 135°
2026-05-04 14:52 -3.57874 39.43095 11276 ft 312 kts 135°
2026-05-04 14:52 -3.59436 39.44593 10780 ft 314 kts 136°
2026-05-04 14:52 -3.60685 39.45790 10490 ft 311 kts 136°
2026-05-04 14:53 -3.61860 39.46865 10385 ft 320 kts 139°
2026-05-04 14:53 -3.63497 39.48431 10197 ft 299 kts 135°
2026-05-04 14:53 -3.64908 39.49847 9808 ft 276 kts 135°
2026-05-04 14:53 -3.66246 39.51139 9435 ft 263 kts 136°
2026-05-04 14:54 -3.67594 39.52417 9101 ft 273 kts 136°
2026-05-04 14:54 -3.68958 39.53721 8742 ft 270 kts 136°
2026-05-04 14:54 -3.70301 39.55011 8391 ft 266 kts 137°
2026-05-04 14:54 -3.71626 39.56284 8042 ft 263 kts 137°
2026-05-04 14:55 -3.72946 39.57549 7688 ft 261 kts 137°
2026-05-04 14:55 -3.74258 39.58807 7342 ft 260 kts 137°
2026-05-04 14:55 -3.75557 39.60055 6991 ft 258 kts 137°
2026-05-04 14:55 -3.76828 39.61274 6660 ft 256 kts 138°
2026-05-04 14:56 -3.78048 39.62569 6402 ft 256 kts 127°
2026-05-04 14:56 -3.78954 39.64122 6110 ft 258 kts 121°
2026-05-04 14:56 -3.79790 39.65714 5650 ft 258 kts 120°
2026-05-04 14:56 -3.80583 39.67304 5073 ft 251 kts 119°
2026-05-04 14:57 -3.81329 39.68843 4569 ft 241 kts 118°
2026-05-04 14:57 -3.82040 39.70316 4120 ft 229 kts 119°
2026-05-04 14:57 -3.82687 39.71693 4006 ft 207 kts 119°
2026-05-04 14:57 -3.83512 39.72716 3956 ft 176 kts 154°
2026-05-04 14:58 -3.84614 39.72735 3937 ft 157 kts 205°
2026-05-04 14:58 -3.85333 39.71976 3972 ft 147 kts 229°
2026-05-04 14:58 -3.85947 39.71200 3911 ft 141 kts 226°
2026-05-04 14:58 -3.86552 39.70446 3796 ft 138 kts 227°
2026-05-04 14:59 -3.87003 39.69574 3493 ft 144 kts 244°
2026-05-04 14:59 -3.87530 39.68773 3215 ft 137 kts 219°
2026-05-04 14:59 -3.88989 39.67475 2889 ft 142 kts 203°
2026-05-04 15:00 -3.89859 39.67019 2737 ft 146 kts 210°
2026-05-04 15:00 -3.90740 39.66502 2555 ft 144 kts 207°
2026-05-04 15:00 -3.91609 39.66010 2370 ft 146 kts 205°
2026-05-04 15:01 -3.93371 39.65035 1985 ft 146 kts 205°
2026-05-04 15:01 -3.94250 39.64547 1796 ft 143 kts 206°
2026-05-04 15:01 -3.95141 39.64052 1622 ft 146 kts 204°
2026-05-04 15:01 -3.96000 39.63575 1409 ft 141 kts 207°
2026-05-04 15:02 -3.96832 39.63108 1242 ft 130 kts 205°
2026-05-04 15:02 -3.97595 39.62687 1066 ft 126 kts 203°
2026-05-04 15:02 -3.98394 39.62252 928 ft 132 kts 206°
2026-05-04 15:02 -3.99192 39.61813 730 ft 128 kts 208°
2026-05-04 15:03 -3.99963 39.61377 525 ft 130 kts 206°
2026-05-04 15:03 -4.00759 39.60946 364 ft 127 kts 205°
2026-05-04 15:03 -4.01513 39.60529 226 ft 118 kts 204°
2026-05-04 15:03 -4.02087 39.60212 220 ft 53 kts 210°
2026-05-04 15:04 -4.02276 39.60106 217 ft 18 kts 209°
2026-05-04 15:04 -4.02388 39.60042 218 ft 26 kts 209°
2026-05-04 15:04 -4.02592 39.59932 219 ft 40 kts 208°
2026-05-04 15:04 -4.02719 39.59937 216 ft 15 kts 145°
2026-05-04 15:05 -4.02813 39.59996 214 ft 16 kts 148°
2026-05-04 15:05 -4.02865 39.60075 219 ft 14 kts 119°
2026-05-04 15:05 -4.02913 39.60163 214 ft 15 kts 119°
2026-05-04 15:05 -4.02964 39.60235 221 ft 6 kts 154°
2026-05-04 15:06 -4.02978 39.60236 215 ft 1 kts 195°
2026-05-04 15:06 -4.02986 39.60232 216 ft 1 kts 212°
2026-05-04 15:06 -4.02997 39.60225 214 ft 2 kts 213°
2026-05-04 15:07 -4.03025 39.60213 217 ft 1 kts 166°
2026-05-04 15:07 -4.03032 39.60217 216 ft 2 kts 144°
2026-05-04 15:07 -4.03046 39.60232 212 ft 4 kts 122°
2026-05-04 15:07 -4.03062 39.60259 215 ft 5 kts 119°
2026-05-04 15:08 -4.03069 39.60272 211 ft 1 kts 120°
2026-05-04 15:08 -4.03070 39.60274 211 ft 0 kts 120°